KCBK

Details ICAO KCBK
Name SHALZ FLD
Region United States
Timezone America/Chicago (UTC-5.0)
Plans Departing 4
Arriving 3
Stats Elevation 3,186 ft / 971 m (AMSL)
Location 39.427196° -101.045904°
Runways 3
Magnetic Variation 5.930° E
Sunrise 2018-05-20 11:27:35 UTC / 2018-05-20 06:27:35 Local
Sunset 2018-05-21 01:56:43 UTC / 2018-05-20 20:56:43 Local
Advertisement - Login to hide

Runways

ID Width Length Bearing (true) Bearing (mag) Surface Threshold Offset Overrun Length
04 80 ft / 24 m 2,575 ft / 785 m 45.44° 39.51° Grass 0 ft / 0 m 0 ft / 0 m
12 90 ft / 27 m 2,600 ft / 792 m 135.96° 130.03° Grass 0 ft / 0 m 0 ft / 0 m
17 75 ft / 23 m 5,118 ft / 1,560 m 180.39° 174.46° Concrete 0 ft / 0 m 0 ft / 0 m
22 80 ft / 24 m 2,575 ft / 785 m 225.45° 219.52° Grass 0 ft / 0 m 0 ft / 0 m
30 90 ft / 27 m 2,600 ft / 792 m 315.97° 310.04° Grass 0 ft / 0 m 0 ft / 0 m
35 75 ft / 23 m 5,118 ft / 1,560 m 0.38° 354.45° Concrete 0 ft / 0 m 0 ft / 0 m

Map

Weather


0- 5 10 15 20 25 30 35+ Temperature / ° C

Clouds and Precipitation
Forecast for 2018-05-21 06:00 UTC. Updated 20 minutes ago

Ground ~20,000 ft ~40,000 ft Winds

METAR

KCBK 210315Z AUTO 10004KT 10SM CLR 11/10 A3015 RMK AO2

TAF

Not found

Frequencies

Recorded 118.17 MHz AWOS 3
Unicom 122.80 MHz CTAF/UNICOM
Warning: Do not use this data for real-world aviation or navigation. No guarantee of current accuracy is given.